Location: The Saddle
(36.8333°N, 80.3417°W)
Time: 13:18:58
(UTC-04:00)

Courier 1B - Pass Details

Date: 18 September 2024
Orbit: 962 x 1208 km, 28.3° (Epoch: 06 October)

Event Time Altitude Azimuth Distance (km) Brightness Sun altitude
Rises 19:18:35 0° 264° (W) 3,997 13.5 0.1°
Reaches altitude 10° 19:22:06 10° 250° (WSW) 3,070 11.5 -0.6°
Maximum altitude 19:27:33 21° 204° (SSW) 2,371 9.8 -1.6°
Drops below altitude 10° 19:33:06 10° 158° (SSE) 3,132 9.9 -2.8°
Sets 19:36:45 0° 144° (SE) 4,098 10.4 -3.5°
